GW0791 Weather Reports


time (UTC)temp
C
wind
direction
speed
KPH
gust
KPH
rain 1hr
cm
rain 24hr
cm
rain mn
cm
humidity
%
barometer
mb
20260503054511 1 360 0.0 0.0 0.00 0.00 0.00 88 1020.5
20260503053010 1 360 0.0 0.0 0.00 0.00 0.00 88 1020.4
20260503051508 1 360 0.0 0.0 0.00 0.00 0.00 87 1020.3
20260503050010 2 360 0.0 0.0 0.00 0.00 0.00 87 1020.2
20260503044507 2 360 0.0 0.0 0.00 0.00 0.00 86 1020.3
20260503043002 2 360 0.0 0.0 0.00 0.00 0.00 85 1020.2
20260503041502 2 360 0.0 0.0 0.00 0.00 0.00 84 1020.0
20260503040100 3 360 0.0 1.6 0.00 0.00 0.00 83 1020.0
20260503034558 3 360 0.0 0.0 0.00 0.00 0.00 82 1020.0
20260503033101 3 360 0.0 1.6 0.00 0.00 0.00 82 1020.0
20260503031556 4 360 0.0 0.0 0.00 0.00 0.00 81 1019.9
20260503030055 4 360 0.0 0.0 0.00 0.00 0.00 80 1019.8
20260503024601 5 360 0.0 0.0 0.00 0.00 0.00 79 1019.7
20260503023052 5 360 0.0 0.0 0.00 0.00 0.00 77 1019.5
20260503021557 6 360 0.0 0.0 0.00 0.00 0.00 76 1019.4
20260503020055 6 360 0.0 0.0 0.00 0.00 0.00 74 1019.3
20260503014617 7 360 0.0 0.0 0.00 0.00 0.00 73 1019.1
20260503013044 7 360 0.0 0.0 0.00 0.00 0.00 71 1018.7
20260503011550 8 360 0.0 0.0 0.00 0.00 0.00 69 1018.6
20260503010051 8 360 0.0 0.0 0.00 0.00 0.00 66 1018.4
20260503004554 9 360 0.0 0.0 0.00 0.00 0.00 63 1018.1
20260503003039 10 360 0.0 0.0 0.00 0.00 0.00 62 1018.0
20260503001539 10 360 0.0 0.0 0.00 0.00 0.00 59 1017.7
20260503000041 11 360 0.0 3.2 0.00 0.00 0.00 55 1017.6
20260502234540 11 360 0.0 3.2 0.00 0.00 0.00 54 1017.5
20260502233032 11 360 1.6 6.4 0.00 0.00 0.00 51 1017.4
20260502231531 11 360 0.0 6.4 0.00 0.00 0.00 52 1017.3
20260502230032 12 360 0.0 3.2 0.00 0.00 0.00 48 1017.2
20260502224529 12 208 0.0 4.8 0.00 0.00 0.00 48 1017.2
20260502223034 12 200 0.0 6.4 0.00 0.00 0.00 48 1017.2
20260502221529 12 183 3.2 8.0 0.00 0.00 0.00 45 1017.2
20260502220028 13 360 3.2 8.0 0.00 0.00 0.00 46 1017.0
20260502214529 13 360 3.2 16.1 0.00 0.00 0.00 46 1016.9
20260502213025 13 360 0.0 12.9 0.00 0.00 0.00 47 1017.0
20260502211536 13 360 3.2 12.9 0.00 0.00 0.00 45 1016.7
20260502210025 13 360 1.6 12.9 0.00 0.00 0.00 46 1016.8
20260502204522 13 360 3.2 16.1 0.00 0.00 0.00 45 1016.8
20260502203019 13 360 1.6 8.0 0.00 0.00 0.00 46 1016.9
20260502201519 14 360 4.8 16.1 0.00 0.00 0.00 44 1017.0
20260502200023 13 360 4.8 9.7 0.00 0.00 0.00 47 1017.0
20260502194516 13 360 1.6 8.0 0.00 0.00 0.00 47 1017.2
20260502193013 13 360 0.0 17.7 0.00 0.00 0.00 45 1017.2
20260502191511 14 360 4.8 20.9 0.00 0.00 0.00 43 1017.1
20260502190009 14 360 1.6 11.3 0.00 0.00 0.00 45 1017.4
20260502184508 13 360 1.6 17.7 0.00 0.00 0.00 47 1017.7
20260502183005 12 219 0.0 11.3 0.00 0.00 0.00 48 1017.8
20260502181504 12 214 4.8 11.3 0.00 0.00 0.00 48 1017.8
20260502163057 14 244 6.4 16.1 0.00 0.00 0.00 48 1018.1
20260502161553 13 360 6.4 22.5 0.00 0.00 0.00 46 1018.3
20260502151554 12 281 4.8 16.1 0.00 0.00 0.00 55 1018.6
20260502123028 5 360 1.6 3.2 0.00 0.00 0.00 94 1018.7
20260502121525 3 360 0.0 3.2 0.00 0.00 0.00 94 1018.7
20260502114518 1 360 0.0 0.0 0.00 0.00 0.00 93 1018.5
20260502113018 1 360 0.0 0.0 0.00 0.00 0.00 93 1018.5
20260502111517 1 360 0.0 0.0 0.00 0.00 0.00 93 1018.7
20260502110015 1 360 0.0 0.0 0.00 0.00 0.00 92 1018.5
20260502104520 1 360 0.0 0.0 0.00 0.00 0.00 92 1018.3
20260502103014 1 360 0.0 0.0 0.00 0.00 0.00 92 1018.4
20260502101530 1 360 0.0 0.0 0.00 0.00 0.00 92 1018.4
20260502080109 1 360 0.0 0.0 0.00 0.00 0.00 91 1018.6
20260502070058 2 360 0.0 0.0 0.00 0.00 0.00 90 1018.3